Location: Unspecified
(54.1780°N, 0.0000°E)
Time: 17:40:38
(UTC+00:00)

Explorer 7 - Pass Details

Date: 24 June 2019
Orbit: 485 x 680 km, 50.3° (Epoch: 17 July)

Event Time Altitude Azimuth Distance (km) Brightness Sun altitude
Rises 12:10:06 0° 273° (W) 2,881 10.5 59.2°
Reaches altitude 10° 12:12:26 10° 267° (W) 2,006 9.9 59.2°
Maximum altitude 12:16:49 43° 196° (SSW) 910 9.8 59.1°
Drops below altitude 10° 12:21:24 10° 125° (SE) 2,090 10.1 59.0°
Sets 12:23:52 0° 119° (ESE) 3,017 10.7 59.0°
